GMT,Max TemperatureF,Mean TemperatureF,Min TemperatureF,Max Dew PointF,MeanDew PointF,Min DewpointF,Max Humidity, Mean Humidity, Min Humidity, Max Sea Level PressureIn, Mean Sea Level PressureIn, Min Sea Level PressureIn, Max VisibilityMiles, Mean VisibilityMiles, Min VisibilityMiles, Max Wind SpeedMPH, Mean Wind SpeedMPH, Max Gust SpeedMPH,PrecipitationIn, CloudCover, Events, WindDirDegrees
2012-11-1,46,37,28,34,29,25,93,77,51,28.77,28.70,28.62,6,6,6,10,4,,0.01,3,,204
2012-11-2,45,40,35,36,33,28,87,74,59,29.14,28.84,28.62,17,7,6,20,9,,0.00,4,,220
2012-11-3,47,38,30,34,28,25,87,69,44,29.25,29.18,29.12,19,7,6,8,5,,0.00,5,,166
2012-11-4,45,38,32,37,33,28,93,79,60,29.64,29.42,29.24,19,8,6,8,5,,0.00,6,,158
2012-11-5,44,40,35,37,34,30,93,81,65,29.91,29.79,29.65,19,8,6,13,8,,0.00,5,Rain,242
2012-11-6,53,48,42,48,43,37,87,78,60,29.94,29.83,29.74,14,6,6,23,17,,0.03,6,Rain,250
2012-11-7,57,52,46,46,43,39,82,73,56,29.92,29.74,29.62,6,6,6,21,16,,0.01,5,Rain,234
2012-11-8,50,47,44,43,41,37,82,73,62,29.83,29.72,29.53,6,6,6,21,15,,0.01,5,Rain,230
2012-11-9,51,46,41,41,36,32,76,64,45,29.50,29.31,29.18,6,6,6,21,14,33,0.00,4,,206
2012-11-10,48,44,41,39,36,34,87,72,54,29.43,29.22,29.12,6,6,6,16,11,,0.00,4,Rain,213
2012-11-11,44,38,33,37,35,28,87,76,57,29.93,29.75,29.44,19,7,6,15,10,,0.00,5,,235
2012-11-12,53,40,28,46,37,25,87,79,68,29.92,29.80,29.71,16,7,6,12,5,,0.04,5,Rain,184
2012-11-13,61,52,44,50,45,41,93,74,58,30.01,29.86,29.74,6,6,6,21,7,34,0.02,6,Rain,198
2012-11-14,53,48,42,41,39,36,87,71,47,30.18,30.09,30.04,6,6,6,18,8,,0.00,6,,221
2012-11-15,50,46,41,41,38,34,81,70,55,30.15,29.99,29.83,6,6,6,23,10,,0.00,3,,216
2012-11-16,50,46,41,43,39,36,93,76,56,29.81,29.72,29.62,17,7,6,16,9,,0.02,6,Rain,224
2012-11-17,45,38,30,36,33,28,93,75,51,29.60,29.54,29.47,6,6,6,14,7,,0.00,2,Rain,214
2012-11-18,43,39,35,34,31,30,81,70,54,29.71,29.65,29.56,6,6,6,16,10,,0.00,5,Rain,210
2012-11-19,57,48,39,48,42,36,93,76,57,29.56,29.28,29.15,16,7,6,23,10,37,0.16,6,Rain,165
2012-11-20,56,50,44,46,41,37,77,68,53,29.42,29.34,29.24,6,6,6,25,13,34,0.00,3,Rain,188
2012-11-21,49,40,32,36,34,28,87,67,47,29.63,29.58,29.44,6,6,6,16,10,,0.00,6,,172
2012-11-22,53,48,42,41,38,32,81,68,49,29.50,29.27,29.18,6,6,6,22,9,38,0.00,5,Rain,180
2012-11-23,46,40,35,36,33,29,81,70,54,29.73,29.50,29.24,6,6,6,18,9,,0.00,4,Rain,209
2012-11-24,43,38,33,34,31,27,81,70,56,29.88,29.81,29.71,6,6,6,12,8,,0.00,7,,205
2012-11-25,42,37,32,40,36,28,93,89,81,29.69,29.61,29.56,19,7,4,14,6,,0.12,6,Rain,267
2012-11-26,43,42,41,41,39,36,93,86,73,29.92,29.80,29.68,19,8,3,24,11,,0.12,6,Rain,327
2012-11-27,45,42,39,39,37,35,87,81,69,30.14,30.04,29.92,18,7,6,20,16,,0.02,6,Rain,329
2012-11-28,40,38,35,34,33,31,87,81,72,30.14,30.11,30.09,19,7,6,17,13,,0.00,4,Rain,294
2012-11-29,38,34,30,32,30,27,93,83,72,30.06,29.93,29.83,19,7,4,9,7,,0.01,6,,229
2012-11-30,39,34,30,36,32,28,93,86,76,29.90,29.85,29.83,9,6,6,15,7,,0.08,6,Rain,239